Home > Weather > Olpe > Past weeks

Flag for Germany Past Weather in Olpe, North Rhine-Westphalia, Germany — Yesterday and Last 2 Weeks

Now
54 °F

Fog.


Feels Like: 54 °F
Forecast: 51 / 62 °F
Wind: 2 mph from North

Location: Koeln / Bonn

Current Time: Jun 26, 2016 at 3:03:35 AM

Latest Report: Jun 26, 2016 at 2:20 AM


Visibility: N/A

Pressure: 30.04 "Hg

Humidity: 94%

Dew Point: 52 °F

Location of OlpeLocation

Past Weather in Olpe — Graph

°F

Olpe Temperature Yesterday

Maximum temperature yesterday: 68 °F (at 12:20 AM)
Minimum temperature yesterday: 55 °F (at 10:20 PM)
Average temperature yesterday: 61 °F

High & Low Weather Summary for the Past Weeks

 TemperatureHumidityPressure
High91 °F (Jun 23, 3:20 PM)100% (Jun 13, 7:20 AM)30.27 "Hg (Jun 13, 7:20 AM)
Low45 °F (Jun 16, 2:50 AM)41% (Jun 11, 4:20 PM)29.47 "Hg (Jun 14, 5:50 PM)
Average63 °F82%29.89 "Hg
* Reported Jun 11 1:20 AM — Jun 26 1:50 AM, Olpe, Weather by CustomWeather, © 2016

Note: Actual official high and low records may vary slightly from our data, if they occured in-between our weather recording intervals... More about our weather records

Advertising

Olpe Weather History for the Previous 24 Hours

Scroll right to see more
 ConditionsComfort  
Time TempWeatherWind HumidityBarometerVisibility
1:50 AM
Sun, Jun 26
55 °FPassing clouds.6 mph94%30.04 "HgN/A
1:20 AM54 °FClear.6 mph100%30.04 "Hg10 mi
12:50 AM54 °FClear.8 mph100%30.04 "Hg10 mi
12:20 AM55 °FClear.7 mph94%30.04 "Hg10 mi
11:50 PM
Sat, Jun 25
55 °FPassing clouds.6 mph100%30.04 "HgN/A
11:20 PM55 °FPassing clouds.7 mph100%30.04 "HgN/A
10:50 PM55 °FFog.3 mph100%30.04 "HgN/A
10:20 PM55 °FFog.3 mph100%30.04 "HgN/A
9:50 PM57 °FCool.5 mph94%30.04 "HgN/A
9:20 PM59 °FScattered clouds.5 mph88%30.01 "HgN/A
8:50 PM59 °FBroken clouds.5 mph88%30.01 "HgN/A
8:20 PM59 °FBroken clouds.3 mph94%30.01 "HgN/A
7:50 PM59 °FBroken clouds.6 mph94%30.01 "HgN/A
7:20 PM59 °FBroken clouds.10 mph94%30.01 "HgN/A
6:50 PM59 °FLight rain. Partly sunny.10 mph94%30.01 "HgN/A
6:20 PM59 °FRain. Broken clouds.7 mph94%29.98 "HgN/A
5:50 PM59 °FRain. Broken clouds.9 mph94%29.98 "HgN/A
5:20 PM59 °FLight rain. More clouds than sun.8 mph94%29.98 "Hg6 mi
4:50 PM59 °FLight rain. More clouds than sun.13 mph94%29.98 "Hg5 mi
4:20 PM59 °FRain. Fog.17 mph94%29.98 "Hg2 mi
3:50 PM59 °FRain. Fog.9 mph100%29.98 "Hg3 mi
3:20 PM59 °FDrizzle. Mostly cloudy.8 mph100%29.98 "Hg4 mi
2:50 PM57 °FDrizzle. Partly sunny.8 mph100%29.95 "Hg4 mi
2:20 PM59 °FDrizzle. Partly sunny.9 mph94%29.95 "Hg4 mi
1:50 PM57 °FDrizzle. Partly sunny.10 mph100%29.95 "Hg4 mi
1:20 PM59 °FRain. Fog.10 mph94%29.95 "Hg3 mi
12:50 PM59 °FRain. Fog.10 mph94%29.95 "Hg3 mi
12:20 PM59 °FRain. Fog.10 mph94%29.95 "Hg3 mi
11:50 AM61 °FRain. Fog.12 mph94%29.95 "Hg2 mi
11:20 AM61 °FRain. Fog.15 mph94%29.95 "Hg2 mi
10:50 AM61 °FRain. Fog.10 mph100%29.95 "Hg2 mi
10:20 AM61 °FDrizzle. Fog.9 mph94%29.95 "Hg3 mi
9:50 AM61 °FLight rain. Broken clouds.10 mph100%29.95 "Hg4 mi
9:20 AM63 °FLight rain. Fog.16 mph100%29.92 "Hg1 mi
8:50 AM63 °FRain. Fog.12 mph100%29.92 "Hg1 mi
8:20 AM63 °FRain. Fog.7 mph100%29.95 "Hg1 mi
7:50 AM63 °FRain. Fog.6 mph100%29.95 "Hg1 mi
7:20 AM63 °FLight rain. Fog.7 mph100%29.98 "Hg2 mi
6:50 AM63 °FRain. Fog.5 mph100%29.98 "Hg2 mi
6:20 AM64 °FRain. Cloudy.5 mph94%29.98 "Hg2 mi
5:50 AM64 °FRain. Passing clouds.8 mph94%29.98 "Hg4 mi
5:20 AM64 °FLight rain. Passing clouds.7 mph94%29.98 "Hg5 mi
4:50 AM64 °FLight rain. Passing clouds.2 mph94%29.98 "HgN/A
4:20 AM64 °FLight rain. Passing clouds.5 mph94%29.98 "HgN/A
3:50 AM64 °FLight rain. Passing clouds.3 mph94%30.01 "HgN/A
3:20 AM64 °FScattered showers. Passing clouds.5 mph94%30.01 "HgN/A
Weather by CustomWeather, © 2016

See weather overviewHow to use our weather pages